Time,TemperatureF,DewpointF,PressureIn,WindDirection,WindDirectionDegrees,WindSpeedMPH,WindSpeedGustMPH,Humidity,HourlyPrecipIn,Conditions,Clouds,dailyrainin,SoftwareType,DateUTC
2013-04-08 00:01:00,16.0,9.1,0.00,SE,135,7.5,-999.0,73,0.00,,,-99.99,,2013-04-08 08:01:00,
2013-04-08 00:06:00,15.7,8.8,0.00,SE,138,9.1,-999.0,74,0.00,,,-99.99,,2013-04-08 08:06:00,
2013-04-08 00:12:00,16.0,9.1,0.00,SE,133,7.5,-999.0,73,0.00,,,-99.99,,2013-04-08 08:12:00,
2013-04-08 00:17:00,15.6,9.2,0.00,SSE,163,8.7,-999.0,75,0.00,,,-99.99,,2013-04-08 08:17:00,
2013-04-08 00:22:00,16.2,9.5,0.00,ESE,122,9.5,-999.0,74,0.00,,,-99.99,,2013-04-08 08:22:00,
2013-04-08 00:27:00,16.0,9.2,0.00,SE,135,7.0,-999.0,74,0.00,,,-99.99,,2013-04-08 08:27:00,
2013-04-08 00:32:00,16.1,8.7,0.00,SE,127,6.3,-999.0,72,0.00,,,-99.99,,2013-04-08 08:32:00,
2013-04-08 00:37:00,16.2,8.2,0.00,SE,132,8.6,-999.0,70,0.00,,,-99.99,,2013-04-08 08:37:00,
2013-04-08 00:42:00,16.1,7.6,0.00,SE,137,7.9,-999.0,68,0.00,,,-99.99,,2013-04-08 08:42:00,
2013-04-08 00:47:00,16.2,7.1,0.00,SE,146,8.6,-999.0,66,0.00,,,-99.99,,2013-04-08 08:47:00,
2013-04-08 00:52:00,16.4,6.6,0.00,SE,133,5.9,-999.0,64,0.00,,,-99.99,,2013-04-08 08:52:00,
2013-04-08 00:57:00,16.2,6.8,0.00,SE,138,10.0,-999.0,65,0.00,,,-99.99,,2013-04-08 08:57:00,
2013-04-08 01:03:00,16.4,6.9,0.00,SE,131,7.8,-999.0,65,0.00,,,-99.99,,2013-04-08 09:03:00,
2013-04-08 01:09:00,16.3,6.7,0.00,SE,135,7.0,-999.0,65,0.00,,,-99.99,,2013-04-08 09:09:00,
2013-04-08 01:14:00,16.1,7.0,0.00,SSE,152,8.6,-999.0,66,0.00,,,-99.99,,2013-04-08 09:14:00,
2013-04-08 01:20:00,16.1,6.9,0.00,SSE,149,5.1,-999.0,66,0.00,,,-99.99,,2013-04-08 09:20:00,
2013-04-08 01:25:00,15.9,7.0,0.00,SSE,150,9.1,-999.0,67,0.00,,,-99.99,,2013-04-08 09:25:00,
2013-04-08 01:31:00,16.2,6.5,0.00,SE,141,7.8,-999.0,65,0.00,,,-99.99,,2013-04-08 09:31:00,
2013-04-08 01:37:00,15.8,6.9,0.00,SSE,150,6.8,-999.0,67,0.00,,,-99.99,,2013-04-08 09:37:00,
2013-04-08 01:42:00,15.9,6.5,0.00,SE,126,5.8,-999.0,65,0.00,,,-99.99,,2013-04-08 09:42:00,
2013-04-08 01:47:00,15.9,6.5,0.00,SE,142,6.4,-999.0,65,0.00,,,-99.99,,2013-04-08 09:47:00,
2013-04-08 01:52:00,15.8,6.4,0.00,SE,125,6.5,-999.0,66,0.00,,,-99.99,,2013-04-08 09:52:00,
2013-04-08 01:57:00,15.9,6.5,0.00,SSE,164,6.2,-999.0,65,0.00,,,-99.99,,2013-04-08 09:57:00,
2013-04-08 02:03:00,16.1,6.4,0.00,SSE,148,9.1,-999.0,65,0.00,,,-99.99,,2013-04-08 10:03:00,
2013-04-08 02:09:00,15.8,6.5,0.00,ESE,121,6.9,-999.0,66,0.00,,,-99.99,,2013-04-08 10:09:00,
2013-04-08 02:14:00,16.2,6.4,0.00,SE,135,7.4,-999.0,64,0.00,,,-99.99,,2013-04-08 10:14:00,
2013-04-08 02:19:00,16.1,6.6,0.00,SSE,161,7.3,-999.0,65,0.00,,,-99.99,,2013-04-08 10:19:00,
2013-04-08 02:24:00,15.9,6.6,0.00,South,172,9.2,-999.0,66,0.00,,,-99.99,,2013-04-08 10:24:00,
2013-04-08 02:29:00,15.8,6.7,0.00,SSE,149,8.9,-999.0,66,0.00,,,-99.99,,2013-04-08 10:29:00,
2013-04-08 02:34:00,15.8,6.8,0.00,SE,136,9.2,-999.0,67,0.00,,,-99.99,,2013-04-08 10:34:00,
2013-04-08 02:39:00,15.8,7.0,0.00,SSE,160,10.7,-999.0,67,0.00,,,-99.99,,2013-04-08 10:39:00,
2013-04-08 02:44:00,15.5,7.1,0.00,SSE,153,7.0,-999.0,69,0.00,,,-99.99,,2013-04-08 10:44:00,
2013-04-08 02:50:00,15.6,7.2,0.00,SSE,151,7.0,-999.0,68,0.00,,,-99.99,,2013-04-08 10:50:00,
2013-04-08 02:55:00,15.8,7.4,0.00,ESE,118,7.7,-999.0,69,0.00,,,-99.99,,2013-04-08 10:55:00,
2013-04-08 03:00:00,15.8,7.5,0.00,SSE,152,8.6,-999.0,69,0.00,,,-99.99,,2013-04-08 11:00:00,
2013-04-08 03:05:00,15.8,7.8,0.00,SSE,148,9.7,-999.0,70,0.04,,,-99.99,,2013-04-08 11:05:00,
2013-04-08 03:10:00,15.7,7.9,0.00,SSE,147,8.7,-999.0,70,0.04,,,-99.99,,2013-04-08 11:10:00,
2013-04-08 03:15:00,15.8,7.7,0.00,SSE,155,14.7,-999.0,70,0.04,,,-99.99,,2013-04-08 11:15:00,
2013-04-08 03:20:00,15.7,7.9,0.00,SE,133,7.9,-999.0,70,0.04,,,-99.99,,2013-04-08 11:20:00,
2013-04-08 03:25:00,15.8,7.6,0.00,SSE,159,8.9,-999.0,69,0.04,,,-99.99,,2013-04-08 11:25:00,
2013-04-08 03:30:00,15.9,7.7,0.00,SE,127,7.1,-999.0,69,0.04,,,-99.99,,2013-04-08 11:30:00,
2013-04-08 03:35:00,15.8,8.1,0.00,SE,144,10.6,-999.0,71,0.04,,,-99.99,,2013-04-08 11:35:00,
2013-04-08 03:40:00,15.5,7.9,0.00,SSE,153,9.5,-999.0,71,0.04,,,-99.99,,2013-04-08 11:40:00,
2013-04-08 03:45:00,15.6,8.4,0.00,SSE,151,9.4,-999.0,72,0.04,,,-99.99,,2013-04-08 11:45:00,
2013-04-08 03:51:00,15.5,8.5,0.00,SSE,162,17.5,-999.0,73,0.06,,,-99.99,,2013-04-08 11:51:00,
2013-04-08 03:57:00,15.3,8.8,0.00,SE,134,12.8,-999.0,75,0.14,,,-99.99,,2013-04-08 11:57:00,
2013-04-08 04:02:00,15.2,8.8,0.00,SE,141,9.3,-999.0,75,0.00,,,-99.99,,2013-04-08 12:02:00,
2013-04-08 04:07:00,15.1,9.1,0.00,SSE,164,11.0,-999.0,76,0.00,,,-99.99,,2013-04-08 12:07:00,
2013-04-08 04:12:00,15.1,9.4,0.00,SE,132,8.5,-999.0,77,0.01,,,-99.99,,2013-04-08 12:12:00,
2013-04-08 04:17:00,15.3,9.9,0.00,ESE,119,7.4,-999.0,78,0.01,,,-99.99,,2013-04-08 12:17:00,
2013-04-08 04:23:00,15.2,9.8,0.00,SE,134,9.3,-999.0,79,0.01,,,-99.99,,2013-04-08 12:23:00,
2013-04-08 04:29:00,15.0,10.2,0.00,East,96,10.6,-999.0,80,0.04,,,-99.99,,2013-04-08 12:29:00,
2013-04-08 04:34:00,15.0,10.4,0.00,SE,144,8.6,-999.0,81,0.04,,,-99.99,,2013-04-08 12:34:00,
2013-04-08 04:40:00,14.9,10.4,0.00,SSE,147,11.2,-999.0,82,0.04,,,-99.99,,2013-04-08 12:40:00,
2013-04-08 04:45:00,14.9,10.6,0.00,SE,139,10.8,-999.0,83,0.04,,,-99.99,,2013-04-08 12:45:00,
2013-04-08 04:50:00,14.9,10.7,0.00,SSE,152,9.2,-999.0,83,0.04,,,-99.99,,2013-04-08 12:50:00,
2013-04-08 04:55:00,14.7,10.7,0.00,South,174,13.2,-999.0,84,0.04,,,-99.99,,2013-04-08 12:55:00,
2013-04-08 05:00:00,14.7,10.7,0.00,ESE,114,8.1,-999.0,84,0.00,,,-99.99,,2013-04-08 13:00:00,
2013-04-08 05:05:00,14.9,11.0,0.00,SE,125,9.4,-999.0,84,0.00,,,-99.99,,2013-04-08 13:05:00,
2013-04-08 05:10:00,14.7,10.8,0.00,SE,126,10.9,-999.0,84,0.00,,,-99.99,,2013-04-08 13:10:00,
2013-04-08 05:15:00,14.9,11.0,0.00,SE,127,8.1,-999.0,84,0.00,,,-99.99,,2013-04-08 13:15:00,
2013-04-08 05:20:00,14.7,10.7,0.00,ESE,111,9.8,-999.0,83,0.00,,,-99.99,,2013-04-08 13:20:00,
2013-04-08 05:25:00,14.7,10.9,0.00,SE,134,8.5,-999.0,84,0.00,,,-99.99,,2013-04-08 13:25:00,
2013-04-08 05:31:00,14.8,10.7,0.00,ESE,106,11.7,-999.0,83,0.00,,,-99.99,,2013-04-08 13:31:00,
2013-04-08 05:36:00,14.6,10.6,0.00,ESE,122,11.2,-999.0,84,0.00,,,-99.99,,2013-04-08 13:36:00,
2013-04-08 05:42:00,14.6,10.6,0.00,SE,139,14.2,-999.0,84,0.00,,,-99.99,,2013-04-08 13:42:00,
2013-04-08 05:47:00,14.7,10.7,0.00,ESE,122,8.6,-999.0,83,0.75,,,-99.99,,2013-04-08 13:47:00,
2013-04-08 05:52:00,14.5,10.9,0.00,SE,127,15.7,-999.0,85,0.76,,,-99.99,,2013-04-08 13:52:00,
2013-04-08 05:57:00,14.4,10.9,0.00,SSE,164,9.5,-999.0,85,0.76,,,-99.99,,2013-04-08 13:57:00,
2013-04-08 06:02:00,14.6,11.1,0.00,SSE,147,9.2,-999.0,85,0.00,,,-99.99,,2013-04-08 14:02:00,
2013-04-08 06:07:00,14.6,11.0,0.00,ESE,121,7.8,-999.0,85,0.00,,,-99.99,,2013-04-08 14:07:00,
2013-04-08 06:13:00,14.5,10.5,0.00,ESE,102,8.1,-999.0,83,0.00,,,-99.99,,2013-04-08 14:13:00,
2013-04-08 06:19:00,14.2,10.4,0.00,SE,131,10.4,-999.0,84,0.00,,,-99.99,,2013-04-08 14:19:00,
2013-04-08 06:24:00,14.3,10.5,0.00,SE,144,9.6,-999.0,84,0.00,,,-99.99,,2013-04-08 14:24:00,
2013-04-08 06:31:00,14.3,10.4,0.00,SE,136,8.2,-999.0,84,0.00,,,-99.99,,2013-04-08 14:31:00,
2013-04-08 06:37:00,14.5,10.4,0.00,SE,125,7.4,-999.0,83,0.00,,,-99.99,,2013-04-08 14:37:00,
2013-04-08 06:42:00,14.3,10.4,0.00,SE,140,7.8,-999.0,84,0.00,,,-99.99,,2013-04-08 14:42:00,
2013-04-08 06:47:00,14.3,10.4,0.00,SE,131,9.5,-999.0,84,0.00,,,-99.99,,2013-04-08 14:47:00,
2013-04-08 06:52:00,14.5,10.4,0.00,ESE,102,8.6,-999.0,83,0.00,,,-99.99,,2013-04-08 14:52:00,
2013-04-08 06:57:00,14.5,10.7,0.00,ESE,105,8.6,-999.0,84,0.00,,,-99.99,,2013-04-08 14:57:00,
2013-04-08 07:02:00,14.6,10.8,0.00,ESE,104,7.2,-999.0,85,0.00,,,-99.99,,2013-04-08 15:02:00,
2013-04-08 07:07:00,14.4,10.5,0.00,SE,137,10.8,-999.0,84,0.00,,,-99.99,,2013-04-08 15:07:00,
2013-04-08 07:12:00,14.3,10.6,0.00,SE,126,8.1,-999.0,85,0.00,,,-99.99,,2013-04-08 15:12:00,
2013-04-08 07:17:00,14.3,10.5,0.00,SE,141,8.3,-999.0,84,0.00,,,-99.99,,2013-04-08 15:17:00,
2013-04-08 07:22:00,14.4,10.7,0.00,ESE,107,8.0,-999.0,85,0.00,,,-99.99,,2013-04-08 15:22:00,
2013-04-08 07:27:00,14.2,10.5,0.00,ESE,123,10.9,-999.0,85,0.00,,,-99.99,,2013-04-08 15:27:00,
2013-04-08 07:32:00,14.2,10.3,0.00,SE,142,12.1,-999.0,84,0.00,,,-99.99,,2013-04-08 15:32:00,
2013-04-08 07:37:00,14.4,10.3,0.00,SSE,162,15.8,-999.0,83,0.04,,,-99.99,,2013-04-08 15:37:00,
2013-04-08 07:42:00,14.4,10.6,0.00,East,96,8.7,-999.0,84,0.06,,,-99.99,,2013-04-08 15:42:00,
2013-04-08 07:47:00,14.3,10.3,0.00,SSE,153,10.3,-999.0,84,0.06,,,-99.99,,2013-04-08 15:47:00,
2013-04-08 07:52:00,14.4,10.8,0.00,East,90,12.0,-999.0,85,0.06,,,-99.99,,2013-04-08 15:52:00,
2013-04-08 07:57:00,14.8,10.9,0.00,SE,134,12.6,-999.0,84,0.06,,,-99.99,,2013-04-08 15:57:00,
2013-04-08 08:04:00,14.9,10.3,0.00,ESE,110,13.7,-999.0,81,0.00,,,-99.99,,2013-04-08 16:04:00,
2013-04-08 08:09:00,15.2,9.8,0.00,ESE,119,14.7,-999.0,78,0.18,,,-99.99,,2013-04-08 16:09:00,
2013-04-08 08:14:00,15.4,10.2,0.00,SE,127,12.2,-999.0,79,0.18,,,-99.99,,2013-04-08 16:14:00,
2013-04-08 08:20:00,15.4,10.1,0.00,ESE,117,9.9,-999.0,79,0.18,,,-99.99,,2013-04-08 16:20:00,
2013-04-08 08:25:00,15.3,10.4,0.00,ESE,106,5.7,-999.0,80,0.18,,,-99.99,,2013-04-08 16:25:00,
2013-04-08 08:30:00,15.3,10.6,0.00,ESE,118,8.8,-999.0,81,0.18,,,-99.99,,2013-04-08 16:30:00,
2013-04-08 08:35:00,15.7,10.8,0.00,SE,125,9.5,-999.0,80,0.18,,,-99.99,,2013-04-08 16:35:00,
2013-04-08 08:40:00,15.7,10.8,0.00,SE,134,11.4,-999.0,80,0.18,,,-99.99,,2013-04-08 16:40:00,
2013-04-08 08:45:00,15.8,10.8,0.00,SSE,157,9.4,-999.0,80,0.18,,,-99.99,,2013-04-08 16:45:00,
2013-04-08 08:50:00,15.9,11.1,0.00,SE,124,8.2,-999.0,81,0.18,,,-99.99,,2013-04-08 16:50:00,
2013-04-08 08:55:00,16.3,11.2,0.00,SE,131,5.6,-999.0,80,0.18,,,-99.99,,2013-04-08 16:55:00,
2013-04-08 09:00:00,16.9,11.2,0.00,SE,131,3.7,-999.0,78,0.00,,,-99.99,,2013-04-08 17:00:00,
2013-04-08 09:05:00,17.0,11.2,0.00,ESE,123,10.6,-999.0,77,0.00,,,-99.99,,2013-04-08 17:05:00,
2013-04-08 09:10:00,16.5,11.0,0.00,SE,135,8.4,-999.0,78,0.00,,,-99.99,,2013-04-08 17:10:00,
2013-04-08 09:15:00,17.2,11.2,0.00,SE,131,5.0,-999.0,77,0.00,,,-99.99,,2013-04-08 17:15:00,
2013-04-08 09:20:00,16.7,11.0,0.00,SSE,152,8.1,-999.0,78,0.00,,,-99.99,,2013-04-08 17:20:00,
2013-04-08 09:28:00,16.9,11.2,0.00,SE,137,8.9,-999.0,78,0.00,,,-99.99,,2013-04-08 17:28:00,
2013-04-08 09:33:00,16.9,11.1,0.00,ESE,112,6.9,-999.0,77,0.00,,,-99.99,,2013-04-08 17:33:00,
2013-04-08 09:39:00,17.1,11.6,0.00,SSE,152,5.9,-999.0,78,0.00,,,-99.99,,2013-04-08 17:39:00,
2013-04-08 09:45:00,16.9,11.5,0.00,SE,131,10.1,-999.0,79,0.00,,,-99.99,,2013-04-08 17:45:00,
2013-04-08 09:51:00,16.6,11.0,0.00,ESE,121,7.6,-999.0,78,0.00,,,-99.99,,2013-04-08 17:51:00,
2013-04-08 09:56:00,17.3,11.5,0.00,East,95,8.4,-999.0,77,0.00,,,-99.99,,2013-04-08 17:56:00,
2013-04-08 10:02:00,17.0,11.3,0.00,ESE,119,7.1,-999.0,78,0.00,,,-99.99,,2013-04-08 18:02:00,
2013-04-08 10:07:00,16.9,11.4,0.00,ESE,115,7.7,-999.0,78,0.00,,,-99.99,,2013-04-08 18:07:00,
2013-04-08 10:12:00,16.9,11.2,0.00,ESE,117,7.5,-999.0,78,0.00,,,-99.99,,2013-04-08 18:12:00,
2013-04-08 10:17:00,17.1,10.7,0.00,ESE,115,9.0,-999.0,75,0.00,,,-99.99,,2013-04-08 18:17:00,
2013-04-08 10:22:00,17.3,11.1,0.00,ESE,105,8.5,-999.0,76,0.00,,,-99.99,,2013-04-08 18:22:00,
2013-04-08 10:27:00,18.2,11.0,0.00,SE,128,6.2,-999.0,73,0.00,,,-99.99,,2013-04-08 18:27:00,
2013-04-08 10:32:00,17.5,11.1,0.00,SE,143,7.5,-999.0,75,0.00,,,-99.99,,2013-04-08 18:32:00,
2013-04-08 10:37:00,18.4,11.7,0.00,ENE,62,8.5,-999.0,74,0.00,,,-99.99,,2013-04-08 18:37:00,
2013-04-08 10:42:00,18.2,10.6,0.00,SE,127,9.2,-999.0,71,0.00,,,-99.99,,2013-04-08 18:42:00,
2013-04-08 10:47:00,19.0,11.4,0.00,SE,130,7.8,-999.0,71,0.00,,,-99.99,,2013-04-08 18:47:00,
2013-04-08 10:52:00,18.4,10.7,0.00,SE,134,6.4,-999.0,71,0.00,,,-99.99,,2013-04-08 18:52:00,
2013-04-08 10:57:00,18.2,10.8,0.00,East,92,8.0,-999.0,72,0.00,,,-99.99,,2013-04-08 18:57:00,
2013-04-08 11:03:00,18.1,11.3,0.00,SE,129,5.1,-999.0,74,0.00,,,-99.99,,2013-04-08 19:03:00,
2013-04-08 11:08:00,18.9,11.2,0.00,ESE,118,7.2,-999.0,71,0.00,,,-99.99,,2013-04-08 19:08:00,
2013-04-08 11:14:00,18.5,10.8,0.00,SE,127,5.9,-999.0,71,0.00,,,-99.99,,2013-04-08 19:14:00,
2013-04-08 11:19:00,18.2,10.7,0.00,ESE,123,8.9,-999.0,71,0.00,,,-99.99,,2013-04-08 19:19:00,
2013-04-08 11:24:00,18.1,11.3,0.00,ESE,121,5.4,-999.0,74,0.00,,,-99.99,,2013-04-08 19:24:00,
2013-04-08 11:29:00,18.0,11.7,0.00,ESE,122,6.8,-999.0,75,0.00,,,-99.99,,2013-04-08 19:29:00,
2013-04-08 11:34:00,18.2,11.6,0.00,South,171,5.9,-999.0,75,0.00,,,-99.99,,2013-04-08 19:34:00,
2013-04-08 11:40:00,18.4,11.3,0.00,ESE,122,10.4,-999.0,73,0.00,,,-99.99,,2013-04-08 19:40:00,
2013-04-08 11:45:00,18.1,12.0,0.00,ESE,112,9.2,-999.0,76,0.00,,,-99.99,,2013-04-08 19:45:00,
2013-04-08 11:50:00,18.4,11.6,0.00,East,93,7.2,-999.0,74,0.00,,,-99.99,,2013-04-08 19:50:00,
2013-04-08 11:55:00,19.7,12.6,0.00,SE,130,4.8,-999.0,73,0.00,,,-99.99,,2013-04-08 19:55:00,
2013-04-08 12:00:00,19.6,11.5,0.00,East,91,6.3,-999.0,70,0.00,,,-99.99,,2013-04-08 20:00:00,
2013-04-08 12:05:00,19.3,11.0,0.00,ENE,78,10.8,-999.0,69,0.00,,,-99.99,,2013-04-08 20:05:00,
2013-04-08 12:10:00,19.3,12.0,0.00,SE,136,6.4,-999.0,72,0.00,,,-99.99,,2013-04-08 20:10:00,
2013-04-08 12:15:00,19.6,11.7,0.00,ESE,105,8.7,-999.0,71,0.00,,,-99.99,,2013-04-08 20:15:00,
2013-04-08 12:21:00,19.4,11.3,0.00,East,84,6.3,-999.0,70,0.00,,,-99.99,,2013-04-08 20:21:00,
2013-04-08 12:27:00,19.4,11.7,0.00,ESE,123,8.1,-999.0,71,0.00,,,-99.99,,2013-04-08 20:27:00,
2013-04-08 12:32:00,20.0,12.8,0.00,SE,124,10.9,-999.0,73,0.00,,,-99.99,,2013-04-08 20:32:00,
2013-04-08 12:37:00,19.5,13.0,0.00,ENE,76,6.5,-999.0,75,0.00,,,-99.99,,2013-04-08 20:37:00,
2013-04-08 12:42:00,20.1,12.5,0.00,SE,126,10.5,-999.0,72,0.00,,,-99.99,,2013-04-08 20:42:00,
2013-04-08 12:47:00,20.0,11.3,0.00,ENE,70,11.1,-999.0,68,0.00,,,-99.99,,2013-04-08 20:47:00,
2013-04-08 12:52:00,20.7,12.1,0.00,ENE,78,5.0,-999.0,69,0.00,,,-99.99,,2013-04-08 20:52:00,
2013-04-08 12:57:00,20.1,11.6,0.00,ENE,59,11.7,-999.0,69,0.00,,,-99.99,,2013-04-08 20:57:00,
2013-04-08 13:02:00,19.9,11.1,0.00,ESE,107,7.4,-999.0,68,0.00,,,-99.99,,2013-04-08 21:02:00,
2013-04-08 13:08:00,20.2,11.0,0.00,ESE,122,9.6,-999.0,67,0.00,,,-99.99,,2013-04-08 21:08:00,
2013-04-08 13:14:00,20.0,10.8,0.00,ESE,108,8.1,-999.0,67,0.00,,,-99.99,,2013-04-08 21:14:00,
2013-04-08 13:19:00,20.2,12.0,0.00,ENE,74,10.0,-999.0,69,0.00,,,-99.99,,2013-04-08 21:19:00,
2013-04-08 13:26:00,20.1,10.8,0.00,ENE,66,7.8,-999.0,66,0.00,,,-99.99,,2013-04-08 21:26:00,
2013-04-08 13:31:00,20.6,11.0,0.00,SE,124,7.3,-999.0,66,0.00,,,-99.99,,2013-04-08 21:31:00,
2013-04-08 13:36:00,21.5,11.1,0.00,ESE,111,4.4,-999.0,63,0.00,,,-99.99,,2013-04-08 21:36:00,
2013-04-08 13:41:00,21.1,11.3,0.00,East,87,6.2,-999.0,65,0.00,,,-99.99,,2013-04-08 21:41:00,
2013-04-08 13:47:00,21.1,10.7,0.00,ESE,115,6.3,-999.0,63,0.00,,,-99.99,,2013-04-08 21:47:00,
2013-04-08 13:52:00,20.9,10.4,0.00,ENE,78,16.0,-999.0,63,0.00,,,-99.99,,2013-04-08 21:52:00,
2013-04-08 13:57:00,21.1,10.6,0.00,ENE,71,8.9,-999.0,63,0.00,,,-99.99,,2013-04-08 21:57:00,
2013-04-08 14:03:00,20.9,10.1,0.00,East,84,14.7,-999.0,62,0.00,,,-99.99,,2013-04-08 22:03:00,
2013-04-08 14:09:00,20.7,9.4,0.00,ESE,120,4.5,-999.0,61,0.00,,,-99.99,,2013-04-08 22:09:00,
2013-04-08 14:14:00,20.5,10.1,0.00,ENE,74,12.5,-999.0,63,0.00,,,-99.99,,2013-04-08 22:14:00,
2013-04-08 14:19:00,20.7,9.7,0.00,ENE,71,21.7,-999.0,61,0.00,,,-99.99,,2013-04-08 22:19:00,
2013-04-08 14:24:00,21.0,8.8,0.00,SE,137,9.5,-999.0,58,0.00,,,-99.99,,2013-04-08 22:24:00,
2013-04-08 14:29:00,21.1,8.8,0.00,East,91,11.2,-999.0,58,0.00,,,-99.99,,2013-04-08 22:29:00,
2013-04-08 14:34:00,20.7,8.3,0.00,ENE,72,13.5,-999.0,58,0.00,,,-99.99,,2013-04-08 22:34:00,
2013-04-08 14:39:00,20.9,7.3,0.00,ENE,71,11.1,-999.0,55,0.00,,,-99.99,,2013-04-08 22:39:00,
2013-04-08 14:44:00,20.2,7.2,0.00,ENE,74,20.6,-999.0,56,0.00,,,-99.99,,2013-04-08 22:44:00,
2013-04-08 14:50:00,20.6,7.6,0.00,East,89,7.3,-999.0,56,0.00,,,-99.99,,2013-04-08 22:50:00,
2013-04-08 14:56:00,20.4,7.4,0.00,East,82,16.1,-999.0,56,0.00,,,-99.99,,2013-04-08 22:56:00,
2013-04-08 15:02:00,20.2,7.9,0.00,East,83,10.6,-999.0,58,0.00,,,-99.99,,2013-04-08 23:02:00,
2013-04-08 15:07:00,20.0,7.9,0.00,ENE,72,16.0,-999.0,58,0.00,,,-99.99,,2013-04-08 23:07:00,
2013-04-08 15:12:00,19.9,9.0,0.00,ESE,104,12.1,-999.0,62,0.00,,,-99.99,,2013-04-08 23:12:00,
2013-04-08 15:17:00,20.2,7.1,0.00,ESE,113,6.3,-999.0,56,0.00,,,-99.99,,2013-04-08 23:17:00,
2013-04-08 15:22:00,20.4,8.6,0.00,SE,144,6.9,-999.0,60,0.00,,,-99.99,,2013-04-08 23:22:00,
2013-04-08 15:27:00,20.7,8.6,0.00,NE,49,12.8,-999.0,58,0.00,,,-99.99,,2013-04-08 23:27:00,
2013-04-08 15:32:00,20.3,7.4,0.00,SE,125,6.0,-999.0,56,0.00,,,-99.99,,2013-04-08 23:32:00,
2013-04-08 15:38:00,20.0,6.0,0.00,East,91,12.1,-999.0,53,0.00,,,-99.99,,2013-04-08 23:38:00,
2013-04-08 15:44:00,20.0,6.1,0.00,ENE,61,15.5,-999.0,54,0.00,,,-99.99,,2013-04-08 23:44:00,
2013-04-08 15:50:00,20.2,4.6,0.00,East,96,10.5,-999.0,50,0.00,,,-99.99,,2013-04-08 23:50:00,
2013-04-08 15:55:00,20.1,4.2,0.00,East,84,12.4,-999.0,49,0.00,,,-99.99,,2013-04-08 23:55:00,
2013-04-08 16:00:00,20.2,5.3,0.00,ENE,78,8.6,-999.0,51,0.00,,,-99.99,,2013-04-09 00:00:00,
2013-04-08 16:05:00,20.1,4.5,0.00,ENE,61,14.1,-999.0,50,0.00,,,-99.99,,2013-04-09 00:05:00,
2013-04-08 16:10:00,19.8,3.6,0.00,SE,128,8.0,-999.0,48,0.00,,,-99.99,,2013-04-09 00:10:00,
2013-04-08 16:15:00,19.8,2.3,0.00,East,89,11.4,-999.0,45,0.00,,,-99.99,,2013-04-09 00:15:00,
2013-04-08 16:20:00,19.7,2.0,0.00,ESE,113,9.4,-999.0,45,0.00,,,-99.99,,2013-04-09 00:20:00,
2013-04-08 16:25:00,19.5,1.8,0.00,East,84,17.2,-999.0,45,0.00,,,-99.99,,2013-04-09 00:25:00,
2013-04-08 16:30:00,19.4,1.7,0.00,ESE,104,9.0,-999.0,45,0.00,,,-99.99,,2013-04-09 00:30:00,
2013-04-08 16:37:00,19.7,0.9,0.00,ENE,70,8.3,-999.0,43,0.00,,,-99.99,,2013-04-09 00:37:00,
2013-04-08 16:42:00,19.5,-0.1,0.00,East,96,6.5,-999.0,41,0.00,,,-99.99,,2013-04-09 00:42:00,
2013-04-08 16:47:00,19.6,1.7,0.00,ESE,120,7.4,-999.0,45,0.00,,,-99.99,,2013-04-09 00:47:00,
2013-04-08 16:52:00,19.3,1.0,0.00,East,80,17.6,-999.0,44,0.00,,,-99.99,,2013-04-09 00:52:00,
2013-04-08 16:57:00,19.3,2.3,0.00,East,89,10.5,-999.0,46,0.00,,,-99.99,,2013-04-09 00:57:00,
2013-04-08 17:02:00,19.0,0.7,0.00,East,82,12.6,-999.0,43,0.00,,,-99.99,,2013-04-09 01:02:00,
2013-04-08 17:07:00,18.8,0.5,0.00,ENE,76,19.7,-999.0,44,0.00,,,-99.99,,2013-04-09 01:07:00,
2013-04-08 17:12:00,18.9,0.9,0.00,SE,144,12.4,-999.0,44,0.00,,,-99.99,,2013-04-09 01:12:00,
2013-04-08 17:17:00,18.9,3.1,0.00,ENE,75,14.9,-999.0,49,0.00,,,-99.99,,2013-04-09 01:17:00,
2013-04-08 17:22:00,19.0,4.9,0.00,East,83,14.0,-999.0,53,0.00,,,-99.99,,2013-04-09 01:22:00,
2013-04-08 17:27:00,18.9,5.7,0.00,ENE,66,9.6,-999.0,55,0.00,,,-99.99,,2013-04-09 01:27:00,
2013-04-08 17:32:00,18.9,5.4,0.00,SE,124,12.3,-999.0,55,0.00,,,-99.99,,2013-04-09 01:32:00,
2013-04-08 17:37:00,18.9,6.2,0.00,ENE,75,6.9,-999.0,56,0.00,,,-99.99,,2013-04-09 01:37:00,
2013-04-08 17:42:00,18.7,6.2,0.00,East,84,11.6,-999.0,57,0.00,,,-99.99,,2013-04-09 01:42:00,
2013-04-08 17:47:00,18.4,5.4,0.00,East,91,14.3,-999.0,56,0.00,,,-99.99,,2013-04-09 01:47:00,
2013-04-08 17:52:00,18.2,5.4,0.00,ENE,71,16.5,-999.0,56,0.00,,,-99.99,,2013-04-09 01:52:00,
2013-04-08 17:57:00,17.9,4.1,0.00,East,81,18.1,-999.0,53,0.00,,,-99.99,,2013-04-09 01:57:00,
2013-04-08 18:02:00,17.9,4.0,0.00,East,97,21.1,-999.0,53,0.00,,,-99.99,,2013-04-09 02:02:00,
2013-04-08 18:07:00,17.9,4.3,0.00,East,84,7.2,-999.0,54,0.00,,,-99.99,,2013-04-09 02:07:00,
2013-04-08 18:14:00,17.9,4.3,0.00,ESE,102,10.6,-999.0,54,0.00,,,-99.99,,2013-04-09 02:14:00,
2013-04-08 18:19:00,17.8,4.3,0.00,ENE,77,11.2,-999.0,55,0.00,,,-99.99,,2013-04-09 02:19:00,
2013-04-08 18:24:00,17.5,3.2,0.00,ENE,74,11.4,-999.0,52,0.00,,,-99.99,,2013-04-09 02:24:00,
2013-04-08 18:29:00,17.8,4.5,0.00,NE,49,3.7,-999.0,55,0.00,,,-99.99,,2013-04-09 02:29:00,
2013-04-08 18:34:00,17.6,3.9,0.00,ESE,114,10.6,-999.0,54,0.00,,,-99.99,,2013-04-09 02:34:00,
2013-04-08 18:39:00,17.6,4.2,0.00,North,4,4.9,-999.0,55,0.00,,,-99.99,,2013-04-09 02:39:00,
2013-04-08 18:44:00,17.6,4.0,0.00,East,79,7.2,-999.0,54,0.00,,,-99.99,,2013-04-09 02:44:00,
2013-04-08 18:49:00,17.6,3.5,0.00,ESE,106,6.2,-999.0,53,0.00,,,-99.99,,2013-04-09 02:49:00,
2013-04-08 18:54:00,17.4,3.5,0.00,ESE,114,10.4,-999.0,54,0.00,,,-99.99,,2013-04-09 02:54:00,
2013-04-08 18:59:00,17.3,3.0,0.00,ESE,112,10.0,-999.0,53,0.00,,,-99.99,,2013-04-09 02:59:00,
2013-04-08 19:05:00,17.4,3.3,0.00,ESE,102,5.8,-999.0,53,0.00,,,-99.99,,2013-04-09 03:05:00,
2013-04-08 19:10:00,17.2,2.5,0.00,East,79,16.5,-999.0,51,0.00,,,-99.99,,2013-04-09 03:10:00,
2013-04-08 19:15:00,16.7,2.8,0.00,ESE,108,7.8,-999.0,53,0.00,,,-99.99,,2013-04-09 03:15:00,
2013-04-08 19:21:00,16.7,3.7,0.00,East,97,12.2,-999.0,55,0.00,,,-99.99,,2013-04-09 03:21:00,
2013-04-08 19:27:00,16.5,2.8,0.00,ENE,76,14.1,-999.0,53,0.00,,,-99.99,,2013-04-09 03:27:00,
2013-04-08 19:32:00,16.7,3.3,0.00,ENE,78,12.0,-999.0,54,0.00,,,-99.99,,2013-04-09 03:32:00,
2013-04-08 19:37:00,16.6,2.7,0.00,East,85,16.4,-999.0,53,0.00,,,-99.99,,2013-04-09 03:37:00,
2013-04-08 19:42:00,16.2,2.1,0.00,ENE,71,12.6,-999.0,53,0.00,,,-99.99,,2013-04-09 03:42:00,
2013-04-08 19:47:00,16.2,2.0,0.00,ENE,77,16.2,-999.0,52,0.00,,,-99.99,,2013-04-09 03:47:00,
2013-04-08 19:53:00,16.1,2.8,0.00,ENE,67,13.6,-999.0,55,0.00,,,-99.99,,2013-04-09 03:53:00,
2013-04-08 19:59:00,16.1,2.6,0.00,ENE,75,16.9,-999.0,54,0.00,,,-99.99,,2013-04-09 03:59:00,
2013-04-08 20:00:00,16.1,3.1,0.00,East,88,20.6,-999.0,55,0.00,,,-99.99,,2013-04-09 04:00:00,
2013-04-08 20:02:00,16.2,2.5,0.00,ENE,71,10.5,-999.0,54,0.00,,,-99.99,,2013-04-09 04:02:00,
2013-04-08 20:05:00,16.2,2.4,0.00,ENE,59,19.1,-999.0,53,0.00,,,-99.99,,2013-04-09 04:05:00,
2013-04-08 20:09:00,16.1,3.0,0.00,NE,56,10.8,-999.0,55,0.00,,,-99.99,,2013-04-09 04:09:00,
2013-04-08 20:14:00,16.2,3.0,0.00,ENE,74,8.6,-999.0,55,0.00,,,-99.99,,2013-04-09 04:14:00,
2013-04-08 20:19:00,16.0,2.1,0.00,East,96,8.2,-999.0,53,0.00,,,-99.99,,2013-04-09 04:19:00,
2013-04-08 20:24:00,15.9,1.8,0.00,ENE,74,6.1,-999.0,52,0.00,,,-99.99,,2013-04-09 04:24:00,
2013-04-08 20:30:00,15.8,2.8,0.00,NE,44,15.2,-999.0,55,0.00,,,-99.99,,2013-04-09 04:30:00,
2013-04-08 20:37:00,15.3,2.8,0.00,East,79,13.0,-999.0,56,0.00,,,-99.99,,2013-04-09 04:37:00,
2013-04-08 20:42:00,15.4,3.0,0.00,ENE,75,12.7,-999.0,57,0.00,,,-99.99,,2013-04-09 04:42:00,
2013-04-08 20:47:00,15.3,3.3,0.00,NE,48,13.8,-999.0,58,0.00,,,-99.99,,2013-04-09 04:47:00,
2013-04-08 20:52:00,15.2,2.8,0.00,East,86,14.7,-999.0,57,0.00,,,-99.99,,2013-04-09 04:52:00,
2013-04-08 20:57:00,15.1,2.9,0.00,ENE,61,11.2,-999.0,57,0.00,,,-99.99,,2013-04-09 04:57:00,
2013-04-08 21:02:00,15.1,2.8,0.00,ENE,61,12.1,-999.0,57,0.00,,,-99.99,,2013-04-09 05:02:00,
2013-04-08 21:09:00,15.2,2.3,0.00,East,81,11.3,-999.0,55,0.00,,,-99.99,,2013-04-09 05:09:00,
2013-04-08 21:14:00,15.1,2.2,0.00,ENE,59,12.3,-999.0,55,0.00,,,-99.99,,2013-04-09 05:14:00,
2013-04-08 21:19:00,15.0,3.5,0.00,East,94,13.5,-999.0,59,0.00,,,-99.99,,2013-04-09 05:19:00,
2013-04-08 21:24:00,15.1,3.4,0.00,ENE,60,13.0,-999.0,59,0.00,,,-99.99,,2013-04-09 05:24:00,
2013-04-08 21:29:00,15.2,3.6,0.00,ENE,61,18.4,-999.0,59,0.00,,,-99.99,,2013-04-09 05:29:00,
2013-04-08 21:34:00,15.3,2.9,0.00,ESE,104,10.9,-999.0,57,0.00,,,-99.99,,2013-04-09 05:34:00,
2013-04-08 21:39:00,15.3,1.2,0.00,ESE,120,12.6,-999.0,52,0.13,,,-99.99,,2013-04-09 05:39:00,
2013-04-08 21:45:00,15.3,1.8,0.00,ESE,105,10.4,-999.0,54,0.13,,,-99.99,,2013-04-09 05:45:00,
2013-04-08 21:50:00,15.3,0.4,0.00,East,84,7.4,-999.0,50,0.13,,,-99.99,,2013-04-09 05:50:00,
2013-04-08 21:55:00,15.4,-0.8,0.00,ENE,74,19.8,-999.0,48,0.13,,,-99.99,,2013-04-09 05:55:00,
2013-04-08 22:00:00,15.2,0.8,0.00,East,97,11.1,-999.0,52,0.00,,,-99.99,,2013-04-09 06:00:00,
2013-04-08 22:05:00,15.2,1.5,0.00,East,88,14.6,-999.0,53,0.00,,,-99.99,,2013-04-09 06:05:00,
2013-04-08 22:10:00,15.2,1.9,0.00,ENE,61,19.8,-999.0,54,0.00,,,-99.99,,2013-04-09 06:10:00,
2013-04-08 22:15:00,15.2,1.3,0.00,ENE,72,8.8,-999.0,53,0.00,,,-99.99,,2013-04-09 06:15:00,
2013-04-08 22:20:00,15.1,0.6,0.00,ENE,68,17.2,-999.0,51,0.00,,,-99.99,,2013-04-09 06:20:00,
2013-04-08 22:25:00,15.1,1.1,0.00,ENE,73,9.4,-999.0,53,0.00,,,-99.99,,2013-04-09 06:25:00,
2013-04-08 22:30:00,15.3,0.9,0.00,East,81,10.5,-999.0,52,0.00,,,-99.99,,2013-04-09 06:30:00,
2013-04-08 22:35:00,15.3,-0.4,0.00,East,98,16.1,-999.0,49,0.00,,,-99.99,,2013-04-09 06:35:00,
2013-04-08 22:40:00,15.5,-1.1,0.00,ENE,68,11.4,-999.0,47,0.05,,,-99.99,,2013-04-09 06:40:00,
2013-04-08 22:45:00,15.2,0.2,0.00,ENE,70,13.1,-999.0,50,0.10,,,-99.99,,2013-04-09 06:45:00,
2013-04-08 22:50:00,15.2,-1.3,0.00,East,94,9.4,-999.0,47,0.10,,,-99.99,,2013-04-09 06:50:00,
2013-04-08 22:56:00,15.0,2.0,0.00,East,92,11.3,-999.0,55,0.10,,,-99.99,,2013-04-09 06:56:00,
2013-04-08 23:01:00,15.1,2.7,0.00,East,86,8.6,-999.0,57,0.00,,,-99.99,,2013-04-09 07:01:00,
2013-04-08 23:07:00,14.9,2.7,0.00,ESE,112,6.6,-999.0,57,0.00,,,-99.99,,2013-04-09 07:07:00,
2013-04-08 23:12:00,15.0,3.4,0.00,ENE,71,17.7,-999.0,59,0.00,,,-99.99,,2013-04-09 07:12:00,
2013-04-08 23:19:00,14.9,3.6,0.00,East,86,9.8,-999.0,60,0.00,,,-99.99,,2013-04-09 07:19:00,
2013-04-08 23:24:00,14.9,3.5,0.00,East,90,12.5,-999.0,59,0.00,,,-99.99,,2013-04-09 07:24:00,
2013-04-08 23:29:00,14.8,4.0,0.00,East,87,11.4,-999.0,61,0.00,,,-99.99,,2013-04-09 07:29:00,
2013-04-08 23:35:00,14.9,4.2,0.00,East,83,12.3,-999.0,62,0.00,,,-99.99,,2013-04-09 07:35:00,
2013-04-08 23:40:00,14.9,4.8,0.00,ENE,74,10.9,-999.0,63,0.00,,,-99.99,,2013-04-09 07:40:00,
2013-04-08 23:45:00,14.9,4.7,0.00,ENE,72,18.0,-999.0,63,0.00,,,-99.99,,2013-04-09 07:45:00,
2013-04-08 23:50:00,14.9,4.8,0.00,East,86,10.4,-999.0,63,0.00,,,-99.99,,2013-04-09 07:50:00,
2013-04-08 23:55:00,15.0,5.2,0.00,ENE,57,16.0,-999.0,64,0.00,,,-99.99,,2013-04-09 07:55:00,